Location: Prague
(50.0830°N, 14.4670°E)
Time: 06:27:39
(UTC+02:00)

Envisat - Pass Details

Date: 02 October 2021
Orbit: 764 x 766 km, 98.2° (Epoch: 26 October)

Event Time Altitude Azimuth Distance (km) Brightness Sun altitude
Rises 04:55:47 0° 27° (NNE) 3,243 7.0 -21.0°
Reaches altitude 10° 04:58:55 10° 47° (NE) 2,311 6.5 -20.5°
Maximum altitude 05:02:12 17° 88° (E) 1,860 5.9 -20.0°
Drops below altitude 10° 05:05:29 10° 129° (SE) 2,299 5.9 -19.5°
Sets 05:08:34 0° 149° (SSE) 3,219 6.4 -19.1°
